• In Uzbekistan
  • List of Countries
  • For 7 days
  • Water Temperature
  • Satellite Maps
  • Weather Map
  • Weather Widgets
  • user-avatar
    Login

    Hourly Weather La-Plata

    Today, 17 October, Tuesday

    Time Temperature Precipitation Wind Pressure Humidity
    00:00 +21°C° 0 mm 3 mps 757 mmHg 90%
    01:00 +20°C° 0 mm 3 mps 757 mmHg 90%
    02:00 +20°C° 0 mm 3 mps 757 mmHg 91%
    03:00 +20°C° 0 mm 3 mps 757 mmHg 91%
    04:00 +20°C° 0 mm 2 mps 757 mmHg 91%
    05:00 +19°C° 0 mm 2 mps 757 mmHg 92%
    06:00 +20°C° 0 mm 2 mps 757 mmHg 88%
    07:00 +23°C° 0 mm 2 mps 757 mmHg 85%
    08:00 +24°C° 0 mm 2 mps 757 mmHg 82%
    09:00 +25°C° 0 mm 2 mps 758 mmHg 77%
    10:00 +26°C° 0 mm 2 mps 758 mmHg 72%
    11:00 +28°C° 0 mm 2 mps 758 mmHg 67%
    12:00 +28°C° 0 mm 2 mps 757 mmHg 67%
    13:00 +28°C° 0 mm 3 mps 757 mmHg 66%
    14:00 +29°C° 0 mm 3 mps 756 mmHg 66%
    15:00 +28°C° 0 mm 3 mps 756 mmHg 69%
    16:00 +28°C° 0 mm 2 mps 756 mmHg 72%
    17:00 +27°C° 0 mm 2 mps 755 mmHg 75%
    18:00 +26°C° 0 mm 2 mps 756 mmHg 80%
    19:00 +24°C° 0 mm 3 mps 756 mmHg 85%
    20:00 +22°C° 0 mm 3 mps 757 mmHg 91%
    21:00 +21°C° 0 mm 3 mps 757 mmHg 92%
    22:00 +21°C° 0 mm 3 mps 757 mmHg 93%
    23:00 +21°C° 0 mm 3 mps 757 mmHg 94%

    Tomorrow, 18 October, Wednesday

    Time Temperature Precipitation Wind Pressure Humidity
    00:00 +20°C° 0 mm 3 mps 757 mmHg 94%
    01:00 +20°C° 0 mm 3 mps 756 mmHg 94%
    02:00 +19°C° 0 mm 2 mps 756 mmHg 94%
    03:00 +19°C° 0 mm 2 mps 756 mmHg 93%
    04:00 +19°C° 0 mm 2 mps 755 mmHg 93%
    05:00 +18°C° 0 mm 2 mps 755 mmHg 93%
    06:00 +20°C° 0 mm 3 mps 755 mmHg 89%
    07:00 +21°C° 0 mm 4 mps 755 mmHg 85%
    08:00 +22°C° 0 mm 4 mps 755 mmHg 81%
    09:00 +23°C° 0.5 mm 4 mps 755 mmHg 81%
    10:00 +25°C° 0.5 mm 4 mps 755 mmHg 80%
    11:00 +26°C° 0.5 mm 3 mps 754 mmHg 79%
    12:00 +26°C° 3.9 mm 3 mps 753 mmHg 83%
    13:00 +25°C° 3.9 mm 3 mps 752 mmHg 87%
    14:00 +25°C° 3.9 mm 3 mps 751 mmHg 91%
    15:00 +24°C° 3.6 mm 3 mps 751 mmHg 92%
    16:00 +24°C° 3.6 mm 3 mps 751 mmHg 93%
    17:00 +22°C° 3.6 mm 3 mps 751 mmHg 95%
    18:00 +22°C° 2.4 mm 3 mps 752 mmHg 93%
    19:00 +21°C° 2.4 mm 3 mps 753 mmHg 92%
    20:00 +20°C° 2.4 mm 2 mps 754 mmHg 90%
    21:00 +20°C° 0.6 mm 4 mps 754 mmHg 91%
    22:00 +20°C° 0.6 mm 5 mps 754 mmHg 92%
    23:00 +20°C° 0.6 mm 6 mps 755 mmHg 94%

    Day after tomorrow, 19 October, Thursday

    Time Temperature Precipitation Wind Pressure Humidity
    00:00 +18°C° 0 mm 7 mps 755 mmHg 91%
    01:00 +16°C° 0 mm 9 mps 756 mmHg 89%
    02:00 +14°C° 0 mm 10 mps 756 mmHg 86%
    03:00 +13°C° 0 mm 9 mps 757 mmHg 87%
    04:00 +12°C° 0 mm 8 mps 758 mmHg 87%
    05:00 +11°C° 0 mm 7 mps 759 mmHg 88%
    06:00 +12°C° 0 mm 7 mps 759 mmHg 79%
    07:00 +14°C° 0 mm 6 mps 760 mmHg 71%
    08:00 +15°C° 0 mm 6 mps 761 mmHg 62%
    09:00 +16°C° 0 mm 6 mps 761 mmHg 58%
    10:00 +17°C° 0 mm 5 mps 761 mmHg 53%
    11:00 +19°C° 0 mm 4 mps 762 mmHg 49%
    12:00 +20°C° 0 mm 3 mps 761 mmHg 48%
    13:00 +20°C° 0 mm 3 mps 761 mmHg 46%
    14:00 +21°C° 0 mm 3 mps 761 mmHg 45%
    15:00 +20°C° 0 mm 3 mps 761 mmHg 49%
    16:00 +20°C° 0 mm 3 mps 760 mmHg 54%
    17:00 +19°C° 0 mm 3 mps 760 mmHg 58%
    18:00 +18°C° 0 mm 3 mps 760 mmHg 60%
    19:00 +15°C° 0 mm 4 mps 760 mmHg 62%
    20:00 +13°C° 0 mm 4 mps 761 mmHg 65%
    21:00 +13°C° 0 mm 4 mps 761 mmHg 66%
    22:00 +13°C° 0 mm 5 mps 761 mmHg 67%
    23:00 +12°C° 0 mm 5 mps 761 mmHg 69%

    20 October, Friday

    Time Temperature Precipitation Wind Pressure Humidity
    00:00 +12°C° 0 mm 5 mps 760 mmHg 69%
    01:00 +12°C° 0 mm 5 mps 760 mmHg 70%
    02:00 +12°C° 0 mm 5 mps 760 mmHg 70%
    03:00 +10°C° 0 mm 5 mps 760 mmHg 69%
    04:00 +10°C° 0 mm 5 mps 759 mmHg 67%
    05:00 +10°C° 0 mm 5 mps 759 mmHg 66%
    06:00 +12°C° 0 mm 5 mps 759 mmHg 65%
    07:00 +14°C° 0 mm 5 mps 759 mmHg 64%
    08:00 +15°C° 0 mm 4 mps 759 mmHg 63%
    09:00 +17°C° 0 mm 4 mps 759 mmHg 61%
    10:00 +19°C° 0 mm 4 mps 758 mmHg 59%
    11:00 +20°C° 0 mm 4 mps 758 mmHg 57%
    12:00 +21°C° 0 mm 3 mps 757 mmHg 56%
    13:00 +22°C° 0 mm 3 mps 757 mmHg 56%
    14:00 +24°C° 0 mm 2 mps 756 mmHg 56%
    15:00 +23°C° 0 mm 2 mps 756 mmHg 60%
    16:00 +22°C° 0 mm 3 mps 756 mmHg 64%
    17:00 +22°C° 0 mm 3 mps 756 mmHg 68%
    18:00 +20°C° 0 mm 3 mps 756 mmHg 72%
    19:00 +18°C° 0 mm 4 mps 757 mmHg 75%
    20:00 +17°C° 0 mm 4 mps 757 mmHg 79%
    21:00 +17°C° 0 mm 4 mps 757 mmHg 78%
    22:00 +15°C° 0 mm 4 mps 757 mmHg 77%
    23:00 +15°C° 0 mm 4 mps 757 mmHg 76%

    21 October, Saturday

    Time Temperature Precipitation Wind Pressure Humidity
    00:00 +15°C° 0 mm 4 mps 758 mmHg 75%
    01:00 +15°C° 0 mm 5 mps 758 mmHg 75%
    02:00 +14°C° 0 mm 5 mps 758 mmHg 74%
    03:00 +13°C° 0 mm 6 mps 759 mmHg 76%
    04:00 +12°C° 0 mm 7 mps 759 mmHg 77%
    05:00 +11°C° 0 mm 8 mps 760 mmHg 78%
    06:00 +12°C° 0 mm 8 mps 761 mmHg 77%
    07:00 +13°C° 0 mm 8 mps 761 mmHg 76%
    08:00 +13°C° 0 mm 8 mps 762 mmHg 75%
    09:00 +15°C° 0 mm 8 mps 762 mmHg 73%
    10:00 +15°C° 0 mm 8 mps 762 mmHg 72%
    11:00 +16°C° 0 mm 7 mps 763 mmHg 70%
    12:00 +16°C° 0.1 mm 7 mps 763 mmHg 65%
    13:00 +17°C° 0.1 mm 7 mps 763 mmHg 61%
    14:00 +18°C° 0.1 mm 7 mps 763 mmHg 56%
    15:00 +17°C° 0.1 mm 7 mps 763 mmHg 60%
    16:00 +16°C° 0.1 mm 6 mps 764 mmHg 63%
    17:00 +15°C° 0.1 mm 6 mps 764 mmHg 67%
    18:00 +14°C° 0.1 mm 6 mps 765 mmHg 69%
    19:00 +13°C° 0.1 mm 6 mps 765 mmHg 70%
    20:00 +11°C° 0.1 mm 6 mps 766 mmHg 72%
    21:00 +10°C° 0 mm 6 mps 766 mmHg 75%
    22:00 +9°C° 0 mm 6 mps 766 mmHg 78%
    23:00 +8°C° 0 mm 6 mps 766 mmHg 81%

    22 October, Sunday

    Time Temperature Precipitation Wind Pressure Humidity
    00:00 +7°C° 0 mm 6 mps 766 mmHg 83%
    01:00 +5°C° 0 mm 6 mps 766 mmHg 84%
    02:00 +5°C° 0 mm 6 mps 766 mmHg 86%
    03:00 +4°C° 0 mm 6 mps 767 mmHg 85%
    04:00 +3°C° 0 mm 6 mps 767 mmHg 85%
    05:00 +3°C° 0 mm 6 mps 767 mmHg 85%
    06:00 +5°C° 0 mm 6 mps 768 mmHg 78%
    07:00 +7°C° 0 mm 6 mps 768 mmHg 71%
    08:00 +9°C° 0 mm 6 mps 768 mmHg 64%
    09:00 +10°C° 0 mm 6 mps 768 mmHg 60%
    10:00 +13°C° 0 mm 5 mps 768 mmHg 57%
    11:00 +14°C° 0 mm 5 mps 768 mmHg 53%
    12:00 +15°C° 0 mm 5 mps 767 mmHg 53%
    13:00 +15°C° 0 mm 4 mps 767 mmHg 52%
    14:00 +17°C° 0 mm 4 mps 766 mmHg 52%
    15:00 +15°C° 0 mm 4 mps 766 mmHg 56%
    16:00 +15°C° 0 mm 4 mps 766 mmHg 59%
    17:00 +15°C° 0 mm 4 mps 766 mmHg 63%
    18:00 +14°C° 0 mm 4 mps 766 mmHg 65%
    19:00 +13°C° 0 mm 4 mps 766 mmHg 67%
    20:00 +11°C° 0 mm 4 mps 766 mmHg 69%
    21:00 +11°C° 0 mm 4 mps 766 mmHg 73%
    22:00 +10°C° 0 mm 3 mps 766 mmHg 76%
    23:00 +9°C° 0 mm 3 mps 766 mmHg 80%
    Show more